ALPHASAT

Last updated on Wed Sep 17 2025 00:02:48 GMT+0000 (Coordinated Universal Time)

1 39215U 13038A 25259.30314666 .00000117 00000+0 00000+0 0 9994 2 39215 2.9535 3.5607 0003982 196.5780 289.3680 1.00272711 41276
UTC large
Height (km)
Speed (km/s)
/
Latitude / Longitude
Inclination (degrees)
Orbital Period (minutes)
Azimuth
Elevation
Range (km)
Doppler Factor

Next 0 passes for location: London (51.5072 / 0.1276)

Sorry there are no passes over London.